TimeCST,TemperatureF,Dew PointF,Humidity,Sea Level PressureIn,VisibilityMPH,Wind Direction,Wind SpeedMPH,Gust SpeedMPH,PrecipitationIn,Events,Conditions,WindDirDegrees,DateUTC
12:58 AM,57.0,55.8,96,30.01,10.0,SW,4.6,-,N/A,,Overcast,220,2014-03-03 06:58:00
1:58 AM,55.8,54.9,97,29.99,10.0,SW,5.8,-,N/A,,Overcast,220,2014-03-03 07:58:00
2:08 AM,57.2,55.4,94,29.99,10.0,SSW,5.8,-,N/A,,Overcast,210,2014-03-03 08:08:00
2:21 AM,57.2,55.4,94,29.98,10.0,SSW,5.8,-,N/A,,Overcast,210,2014-03-03 08:21:00
2:36 AM,57.2,55.4,94,29.97,10.0,South,6.9,-,N/A,,Overcast,180,2014-03-03 08:36:00
2:58 AM,57.2,56.1,96,29.96,9.0,South,8.1,-,N/A,,Overcast,170,2014-03-03 08:58:00
3:03 AM,57.2,57.2,100,29.95,6.0,South,8.1,-,N/A,,Overcast,180,2014-03-03 09:03:00
3:58 AM,57.7,57.2,98,29.94,8.0,South,9.2,-,N/A,,Overcast,180,2014-03-03 09:58:00
4:58 AM,58.6,57.7,97,29.94,8.0,South,11.5,-,N/A,,Overcast,180,2014-03-03 10:58:00
5:13 AM,59.0,57.2,94,29.93,10.0,South,10.4,-,N/A,,Overcast,170,2014-03-03 11:13:00
5:58 AM,58.5,57.6,97,29.94,10.0,South,10.4,-,N/A,,Overcast,190,2014-03-03 11:58:00
6:28 AM,59.0,57.2,94,29.94,10.0,South,8.1,-,N/A,,Overcast,180,2014-03-03 12:28:00
6:58 AM,59.4,58.3,96,29.96,10.0,South,10.4,-,N/A,,Overcast,180,2014-03-03 12:58:00
7:23 AM,60.8,59.0,94,29.95,10.0,South,9.2,-,N/A,,Mostly Cloudy,190,2014-03-03 13:23:00
7:28 AM,60.8,59.0,94,29.95,10.0,SSW,8.1,-,N/A,,Mostly Cloudy,200,2014-03-03 13:28:00
7:58 AM,63.1,59.5,88,29.96,10.0,South,11.5,-,N/A,,Mostly Cloudy,190,2014-03-03 13:58:00
8:58 AM,66.6,60.6,81,29.96,10.0,SSW,10.4,19.6,N/A,,Overcast,210,2014-03-03 14:58:00
9:03 AM,68.0,60.8,78,29.94,10.0,SSW,11.5,19.6,N/A,,Overcast,210,2014-03-03 15:03:00
9:58 AM,68.0,62.2,82,29.96,10.0,SW,9.2,-,N/A,,Overcast,230,2014-03-03 15:58:00
9:59 AM,68.0,62.6,83,29.95,10.0,SW,8.1,-,N/A,Rain,Light Rain,230,2014-03-03 15:59:00
10:58 AM,67.6,64.4,89,29.96,5.0,West,16.1,24.2,0.00,Rain,Rain,280,2014-03-03 16:58:00
10:59 AM,66.2,64.4,94,29.96,3.0,West,16.1,24.2,N/A,Rain,Heavy Rain,280,2014-03-03 16:59:00
11:04 AM,66.2,64.4,94,29.96,2.5,WNW,12.7,24.2,N/A,Rain,Rain,290,2014-03-03 17:04:00
11:09 AM,64.4,62.6,94,29.97,5.0,WNW,18.4,26.5,N/A,Rain,Light Rain,300,2014-03-03 17:09:00
11:16 AM,60.8,59.0,94,29.98,9.0,NW,20.7,26.5,N/A,Rain,Light Rain,310,2014-03-03 17:16:00
11:28 AM,57.2,55.4,94,29.98,10.0,NW,19.6,27.6,N/A,,Overcast,310,2014-03-03 17:28:00
11:33 AM,55.4,53.6,94,29.99,10.0,NW,17.3,27.6,N/A,,Overcast,310,2014-03-03 17:33:00
11:58 AM,52.9,51.1,94,30.01,10.0,NW,15.0,24.2,0.05,,Overcast,310,2014-03-03 17:58:00
12:13 PM,51.8,50.0,94,30.00,10.0,WNW,13.8,25.3,N/A,,Overcast,300,2014-03-03 18:13:00
12:23 PM,51.8,50.0,94,30.00,10.0,WNW,12.7,-,N/A,,Overcast,300,2014-03-03 18:23:00
12:58 PM,53.6,48.2,82,30.01,10.0,NW,13.8,-,N/A,,Overcast,310,2014-03-03 18:58:00
1:13 PM,55.4,48.2,77,30.00,10.0,NW,12.7,-,N/A,,Overcast,310,2014-03-03 19:13:00
1:58 PM,55.6,46.4,71,30.00,10.0,NW,12.7,-,N/A,,Overcast,320,2014-03-03 19:58:00
2:58 PM,53.2,43.5,70,30.02,10.0,WNW,13.8,-,N/A,,Scattered Clouds,300,2014-03-03 20:58:00
3:08 PM,53.6,42.8,67,30.02,10.0,NNW,15.0,-,N/A,,Mostly Cloudy,330,2014-03-03 21:08:00
3:10 PM,53.6,42.8,67,30.02,10.0,NNW,15.0,20.7,N/A,,Mostly Cloudy,340,2014-03-03 21:10:00
3:58 PM,50.0,41.7,73,30.05,10.0,WNW,12.7,-,N/A,,Overcast,300,2014-03-03 21:58:00
4:58 PM,47.5,40.3,76,30.07,10.0,NNW,10.4,-,N/A,,Overcast,330,2014-03-03 22:58:00
5:58 PM,45.7,39.6,79,30.09,10.0,NW,9.2,-,N/A,,Overcast,320,2014-03-03 23:58:00
6:53 PM,44.6,39.2,81,30.08,10.0,NNW,10.4,-,N/A,,Overcast,330,2014-03-04 00:53:00
6:58 PM,43.9,38.5,81,30.09,10.0,NW,11.5,-,N/A,,Overcast,320,2014-03-04 00:58:00
7:58 PM,41.2,35.4,80,30.12,10.0,NW,11.5,-,N/A,,Overcast,320,2014-03-04 01:58:00
8:43 PM,41.0,33.8,76,30.12,10.0,NNW,12.7,-,N/A,,Overcast,330,2014-03-04 02:43:00
8:58 PM,40.6,34.5,79,30.14,10.0,North,11.5,-,N/A,,Overcast,350,2014-03-04 02:58:00
9:58 PM,39.4,33.3,79,30.15,10.0,NNW,10.4,18.4,N/A,,Overcast,340,2014-03-04 03:58:00
10:58 PM,38.1,31.8,78,30.15,10.0,NNW,12.7,-,N/A,,Overcast,330,2014-03-04 04:58:00
11:58 PM,37.8,31.6,79,30.14,10.0,North,6.9,-,N/A,,Overcast,350,2014-03-04 05:58:00